Weather in Smorodino

Russia / Tula Oblast     53˚55′52″N   38˚19′04″E
temp.,
°C
wind,
m/s
gust,
m/s
humid.,
%
clouds,
%
prec.,
mm/h
press.,
hPa
HPBL,
m
16 january, sat
sat1600:00−15˚n3495100 0.0 100985
03:00−16˚n3696100 0.0 1008144
06:00−15˚nw3596100 0.0 1006135
09:00−14˚nnw5795100 0.6 1005262
12:00−14˚nw5895100 0.8 1005376
15:00−14˚wnw61094100 1.9 1005480
18:00−15˚wnw61095100 0.9 1006481
21:00−15˚nw5995100 1.9 1007509
17 january, sun
sun1700:00−16˚nw5895100 0.8 1008543
03:00−16˚nw4896100 1.4 1010485
06:00−17˚nw3697100 0.7 1010467
09:00−19˚nw3696100 1.1 1012331
12:00−19˚nnw3594100 0.1 1014315
15:00−20˚n3494100 0.1 1015292
18:00−22˚n2396100 0.0 101747
21:00−23˚n2396100 0.0 101859
18 january, mon
mon1800:00−24˚ne1196100 0.0 101820
03:00−24˚n129697 0.0 101920
06:00−26˚nnw119776 0.0 101919
09:00−26˚e119782 0.0 101920
12:00−22˚wnw1194100 0.0 1020117
15:00−21˚nnw1295100 0.0 1019116
18:00−23˚wnw1195100 0.0 101920
21:00−22˚nw1295100 0.0 101920
19 january, tue
tue1900:00−21˚wnw1194100 0.0 101920
03:00−21˚nw2293100 0.0 101935
06:00−21˚nw1293100 0.0 101824
09:00−21˚nw2292100 0.0 101829
12:00−18˚nw2391100 0.0 1018174
15:00−18˚wnw2494100 0.0 1018166
18:00−21˚wnw3396100 0.0 101835
21:00−20˚wnw339895 0.0 102059
20 january, wed
wed2000:00−21˚wnw339988 0.0 102043
03:00−21˚wnw349991 0.1 102147
06:00−21˚wnw349981 0.0 102249
09:00−20˚wnw239973 0.0 102324
12:00−16˚w349539 0.0 1024121
15:00−15˚wsw349522 0.0 1024115
18:00−18˚sw34960 0.0 102432
21:00−18˚sw44958 0.0 102474